Weather History for Aspen, CO

Change the Weather History Date:

Friday, November 1, 2013

  Actual Average Record
Temperature  
Mean Temperature 32 °F 36 °F  
Max Temperature 41 °F 49 °F 63 °F (2008)
Min Temperature 22 °F 23 °F 9 °F (1991)
Degree Days  
Heating Degree Days 33 29  
Month to date heating degree days 33 29  
Since 1 July heating degree days 1238 1284  
Cooling Degree Days 0 0  
Month to date cooling degree days 0 0  
Year to date cooling degree days 69 39  
Moisture  
Dew Point 27 °F    
Average Humidity 72    
Maximum Humidity 92    
Minimum Humidity 51    
Precipitation  
Precipitation 0.04 in 0.06 in 0.45 in (1992)
Month to date precipitation 0.04 0.06  
Year to date precipitation 14.24 14.81  
Sea Level Pressure  
Sea Level Pressure 30.18 in    
Wind  
Wind Speed 5 mph (North)    
Max Wind Speed 14 mph    
Max Gust Speed 22 mph    
Visibility 7 miles    
Events Snow    
T = Trace of Precipitation, MM = Missing Value Source: NWS Daily Summary

Daily Weather History Graph

Daily Weather History Graph

Search for Another Location

Airport:

Trip Planner

Search our weather history database for the weather conditions in past years. The results will help you decide how hot, cold, wet, or windy it might be!

Date:

Astronomy

Nov. 01, 2013 Rise Set
Actual Time 7:35 AM MDT 6:05 PM MDT
Civil Twilight 7:07 AM MDT 6:33 PM MDT
Nautical Twilight 6:36 AM MDT 7:05 PM MDT
Astronomical Twilight 6:04 AM MDT 7:36 PM MDT
Moon 5:31 AM MDT (11/1) 5:00 PM MDT (11/1)
Length of Visible Light 11h 26m
Length of Day
10h 30m
Waning Crescent, 4% of the Moon is Illuminated
Nov 1
Waning Crescent
Nov 3
New
Nov 9
First Quarter
Nov 17
Full
Nov 25
Last Quarter

Hourly Weather History & Observations

Time (MDT) Temp. Windchill Dew Point Humidity Pressure Visibility Wind Dir Wind Speed Gust Speed Precip Events Conditions
12:53 AM 28.9 °F - 28.0 °F 96% 30.05 in 3.0 mi Calm Calm - 0.00 in Snow Light Snow
1:06 AM 28.4 °F - 28.4 °F 100% 30.10 in 5.0 mi Calm Calm - 0.00 in Snow Light Snow
1:31 AM 28.4 °F 24.6 °F 28.4 °F 100% 30.12 in 2.0 mi NNW 3.5 mph - 0.00 in Snow Light Snow
1:38 AM 28.4 °F 24.6 °F 28.4 °F 100% 30.12 in 1.0 mi North 3.5 mph - 0.00 in Snow Light Snow
1:50 AM 28.4 °F 24.6 °F 28.4 °F 100% 30.12 in 2.0 mi North 3.5 mph - 0.00 in Snow Light Snow
1:53 AM 28.9 °F - 28.9 °F 100% 30.06 in 3.0 mi Calm Calm - 0.00 in Snow Light Snow
2:09 AM 28.4 °F - 28.4 °F 100% 30.12 in 8.0 mi Calm Calm - 0.00 in   Overcast
2:23 AM 28.4 °F - 28.4 °F 100% 30.12 in 8.0 mi Calm Calm - 0.00 in   Overcast
2:53 AM 28.9 °F - 28.0 °F 96% 30.06 in 8.0 mi Calm Calm - 0.00 in   Overcast
3:16 AM 28.4 °F - 28.4 °F 100% 30.13 in 1.8 mi Calm Calm - 0.00 in Snow Light Snow
3:22 AM 28.4 °F - 28.4 °F 100% 30.12 in 3.0 mi Calm Calm - 0.00 in Snow Light Snow
3:53 AM 28.9 °F - 27.0 °F 92% 30.06 in 10.0 mi Calm Calm - 0.00 in   Overcast
4:30 AM 28.4 °F - 28.4 °F 100% 30.13 in 1.8 mi Calm Calm - 0.01 in Snow Light Snow
4:50 AM 28.4 °F 23.3 °F 28.4 °F 100% 30.14 in 1.8 mi NNW 4.6 mph - 0.02 in Snow Light Snow
4:53 AM 28.9 °F 23.9 °F 28.0 °F 96% 30.10 in 2.0 mi North 4.6 mph - 0.02 in Snow Light Snow
5:00 AM 28.4 °F 23.3 °F 28.4 °F 100% 30.15 in 1.0 mi North 4.6 mph - 0.01 in Snow Light Snow
5:06 AM 28.4 °F 24.6 °F 28.4 °F 100% 30.15 in 0.8 mi North 3.5 mph - 0.01 in Snow Light Snow
5:13 AM 28.4 °F 23.3 °F 28.4 °F 100% 30.16 in 2.0 mi North 4.6 mph - 0.01 in Snow Light Snow
5:19 AM 28.4 °F 23.3 °F 28.4 °F 100% 30.16 in 6.0 mi North 4.6 mph - 0.01 in Snow Light Snow
5:53 AM 28.9 °F 23.9 °F 28.9 °F 100% 30.12 in 5.0 mi North 4.6 mph - 0.01 in Snow Light Snow
6:08 AM 28.4 °F 24.6 °F 28.4 °F 100% 30.18 in 8.0 mi North 3.5 mph - 0.00 in Snow Light Snow
6:21 AM 30.2 °F - 28.4 °F 93% 30.18 in 10.0 mi Calm Calm - 0.00 in   Overcast
6:53 AM 30.0 °F - 28.9 °F 96% 30.14 in 10.0 mi Calm Calm - 0.00 in   Overcast
7:28 AM 30.2 °F 26.7 °F 28.4 °F 93% 30.20 in 2.0 mi North 3.5 mph - 0.01 in Snow Light Snow
7:53 AM 30.0 °F - 28.9 °F 96% 30.17 in 6.0 mi Calm Calm - 0.01 in   Overcast
8:53 AM 30.0 °F 25.2 °F 28.0 °F 92% 30.20 in 10.0 mi NW 4.6 mph - N/A   Mostly Cloudy
9:53 AM 32.0 °F 28.7 °F 28.0 °F 85% 30.21 in 10.0 mi North 3.5 mph - N/A   Mostly Cloudy
10:53 AM 33.1 °F 28.7 °F 28.0 °F 82% 30.22 in 10.0 mi NNE 4.6 mph - N/A   Overcast
11:15 AM 33.8 °F - 28.4 °F 81% 30.27 in 10.0 mi Calm Calm - N/A   Mostly Cloudy
11:53 AM 34.0 °F 29.8 °F 28.0 °F 79% 30.22 in 10.0 mi Variable 4.6 mph - 0.00 in   Mostly Cloudy
12:53 PM 37.0 °F 32.4 °F 25.0 °F 62% 30.22 in 10.0 mi North 5.8 mph - N/A   Overcast
1:53 PM 37.9 °F 30.9 °F 24.1 °F 57% 30.19 in 10.0 mi North 10.4 mph 21.9 mph N/A   Overcast
2:53 PM 39.0 °F 32.8 °F 24.1 °F 55% 30.21 in 10.0 mi North 9.2 mph - N/A   Mostly Cloudy
3:53 PM 41.0 °F 36.4 °F 25.0 °F 53% 30.20 in 10.0 mi North 6.9 mph - N/A   Mostly Cloudy
4:53 PM 39.9 °F 33.9 °F 24.1 °F 53% 30.22 in 10.0 mi NNW 9.2 mph - N/A   Mostly Cloudy
5:53 PM 36.0 °F - 23.0 °F 59% 30.25 in 10.0 mi Calm Calm - N/A   Partly Cloudy
6:53 PM 30.0 °F 24.1 °F 24.1 °F 79% 30.30 in 10.0 mi SSW 5.8 mph - N/A   Clear
7:53 PM 28.9 °F 21.1 °F 23.0 °F 78% 30.33 in 10.0 mi SSW 8.1 mph - N/A   Clear
8:53 PM 28.0 °F 20.8 °F 21.9 °F 78% 30.34 in 10.0 mi South 6.9 mph - N/A   Clear
9:53 PM 30.0 °F 22.4 °F 19.9 °F 66% 30.31 in 10.0 mi SE 8.1 mph - N/A   Clear
10:53 PM 26.1 °F 19.4 °F 19.0 °F 75% 30.32 in - SSW 5.8 mph - N/A   Unknown
11:53 PM 24.1 °F - 18.0 °F 77% 30.34 in 10.0 mi Calm Calm - N/A   Clear